IT9IJI-13 Weather Reports


Display with metric or nautical units.
time (UTC)temp
F
wind
direction
speed
MPH
gust
MPH
rain 1hr
in
rain 24hr
in
rain mn
in
humidity
%
barometer
mb
20260504033303 59 295 1.0 3.0 0.00 0.00 0.00 74 1019.8
20260504033203 59 296 0.0 3.0 0.00 0.00 0.00 74 1019.8
20260504033103 59 296 0.0 3.0 0.00 0.00 0.00 74 1019.7
20260504033003 59 298 0.0 3.0 0.00 0.00 0.00 74 1019.8
20260504032903 59 299 0.0 3.0 0.00 0.00 0.00 74 1019.8
20260504032803 59 300 0.0 3.0 0.00 0.00 0.00 74 1019.8
20260504032703 59 301 0.0 4.0 0.00 0.00 0.00 74 1019.7
20260504032603 59 304 0.0 4.0 0.00 0.00 0.00 74 1019.7
20260504032503 58 303 0.0 4.0 0.00 0.00 0.00 74 1019.7
20260504032403 58 300 0.0 4.0 0.00 0.00 0.00 74 1019.7
20260504032304 58 300 0.0 4.0 0.00 0.00 0.00 74 1019.8
20260504032203 58 300 0.0 4.0 0.00 0.00 0.00 73 1019.7
20260504032103 58 300 0.0 4.0 0.00 0.00 0.00 73 1019.7
20260504032003 58 299 0.0 4.0 0.00 0.00 0.00 73 1019.7
20260504031903 58 298 0.0 4.0 0.00 0.00 0.00 73 1019.7
20260504031803 58 298 0.0 4.0 0.00 0.00 0.00 73 1019.8
20260504031703 58 295 0.0 4.0 0.00 0.00 0.00 72 1019.7
20260504031603 58 295 0.0 4.0 0.00 0.00 0.00 72 1019.7
20260504031503 58 292 0.0 3.0 0.00 0.00 0.00 71 1019.7
20260504031403 58 292 0.0 3.0 0.00 0.00 0.00 71 1019.7
20260504031303 58 292 0.0 3.0 0.00 0.00 0.00 71 1019.7
20260504031203 58 292 0.0 3.0 0.00 0.00 0.00 71 1019.7
20260504031103 58 292 0.0 3.0 0.00 0.00 0.00 70 1019.8
20260504031003 58 292 0.0 3.0 0.00 0.00 0.00 70 1019.8
20260504030903 58 292 0.0 3.0 0.00 0.00 0.00 70 1019.8
20260504030803 58 292 0.0 3.0 0.00 0.00 0.00 69 1019.7
20260504030703 57 292 0.0 3.0 0.00 0.00 0.00 69 1019.7
20260504030603 57 0 0.0 0.0 0.00 0.00 0.00 69 1019.7
20260504030503 57 0 0.0 0.0 0.00 0.00 0.00 68 1019.8
20260504030403 57 0 0.0 0.0 0.00 0.00 0.00 68 1019.8
20260504030303 57 0 0.0 0.0 0.00 0.00 0.00 68 1019.8
20260504030203 57 0 0.0 0.0 0.00 0.00 0.00 68 1019.7
20260504030003 57 0 0.0 0.0 0.00 0.00 0.00 68 1019.8
20260504025903 57 0 0.0 0.0 0.00 0.00 0.00 68 1019.8
20260504025803 57 0 0.0 0.0 0.00 0.00 0.00 68 1019.7
20260504025703 57 0 0.0 0.0 0.00 0.00 0.00 68 1019.7
20260504025603 57 0 0.0 0.0 0.00 0.00 0.00 68 1019.7
20260504025503 58 0 0.0 0.0 0.00 0.00 0.00 68 1019.8
20260504025403 57 0 0.0 0.0 0.00 0.00 0.00 68 1019.8
20260504025304 58 0 0.0 0.0 0.00 0.00 0.00 68 1019.9
20260504025203 58 0 0.0 0.0 0.00 0.00 0.00 68 1020.0
20260504025103 58 0 0.0 0.0 0.00 0.00 0.00 68 1020.0
20260504025003 58 0 0.0 0.0 0.00 0.00 0.00 68 1020.1
20260504024904 58 0 0.0 0.0 0.00 0.00 0.00 68 1020.0
20260504024803 58 0 0.0 0.0 0.00 0.00 0.00 68 1020.0
20260504024703 58 0 0.0 0.0 0.00 0.00 0.00 68 1020.1
20260504024503 58 0 0.0 0.0 0.00 0.00 0.00 68 1020.1
20260504024403 58 0 0.0 0.0 0.00 0.00 0.00 68 1020.1
20260504024303 58 0 0.0 0.0 0.00 0.00 0.00 68 1020.0
20260504024203 58 0 0.0 0.0 0.00 0.00 0.00 68 1020.0
20260504024103 58 292 0.0 1.0 0.00 0.00 0.00 69 1020.1
20260504024003 58 292 0.0 2.0 0.00 0.00 0.00 68 1020.1
20260504023903 58 292 0.0 2.0 0.00 0.00 0.00 68 1020.0
20260504023803 58 292 0.0 2.0 0.00 0.00 0.00 69 1020.1
20260504023703 58 292 0.0 2.0 0.00 0.00 0.00 69 1020.2
20260504023603 58 292 0.0 2.0 0.00 0.00 0.00 69 1020.1
20260504023503 58 292 0.0 2.0 0.00 0.00 0.00 69 1020.1
20260504023403 58 292 0.0 2.0 0.00 0.00 0.00 69 1020.0
20260504023303 58 292 0.0 2.0 0.00 0.00 0.00 69 1020.0
20260504023203 58 292 0.0 2.0 0.00 0.00 0.00 69 1020.0
20260504023103 58 292 0.0 2.0 0.00 0.00 0.00 69 1020.1
20260504023003 58 292 0.0 2.0 0.00 0.00 0.00 69 1020.1
20260504022903 58 292 0.0 2.0 0.00 0.00 0.00 69 1020.2
20260504022803 58 292 0.0 2.0 0.00 0.00 0.00 69 1020.1
20260504022703 58 292 0.0 2.0 0.00 0.00 0.00 69 1020.3
20260504022603 58 0 0.0 0.0 0.00 0.00 0.00 69 1020.2
20260504022503 58 0 0.0 0.0 0.00 0.00 0.00 69 1020.1
20260504022403 58 0 0.0 0.0 0.00 0.00 0.00 69 1020.1
20260504022304 58 0 0.0 0.0 0.00 0.00 0.00 70 1020.1
20260504022203 58 0 0.0 0.0 0.00 0.00 0.00 70 1020.2
20260504022103 58 0 0.0 0.0 0.00 0.00 0.00 70 1020.1
20260504022003 58 292 0.0 1.0 0.00 0.00 0.00 70 1020.1
20260504021903 58 292 0.0 2.0 0.00 0.00 0.00 70 1020.1
20260504021803 58 292 0.0 2.0 0.00 0.00 0.00 70 1020.2
20260504021703 58 292 0.0 2.0 0.00 0.00 0.00 70 1020.3
20260504021603 58 292 0.0 2.0 0.00 0.00 0.00 70 1020.2
20260504021503 58 292 0.0 2.0 0.00 0.00 0.00 70 1020.2
20260504021403 58 292 0.0 2.0 0.00 0.00 0.00 70 1020.2
20260504021303 58 292 0.0 2.0 0.00 0.00 0.00 71 1020.2
20260504021203 58 292 0.0 2.0 0.00 0.00 0.00 71 1020.2
20260504021103 58 292 0.0 2.0 0.00 0.00 0.00 71 1020.3
20260504021003 58 292 0.0 2.0 0.00 0.00 0.00 71 1020.3
20260504020903 58 292 0.0 2.0 0.00 0.00 0.00 71 1020.2
20260504020803 58 292 0.0 1.0 0.00 0.00 0.00 71 1020.3
20260504020704 58 292 0.0 1.0 0.00 0.00 0.00 71 1020.3
20260504020604 58 292 0.0 1.0 0.00 0.00 0.00 71 1020.2
20260504020504 58 292 0.0 1.0 0.00 0.00 0.00 72 1020.2
20260504020404 58 292 0.0 2.0 0.00 0.00 0.00 72 1020.2
20260504020304 58 292 0.0 2.0 0.00 0.00 0.00 72 1020.2
20260504020204 58 292 0.0 2.0 0.00 0.00 0.00 72 1020.1
20260504020104 58 292 0.0 2.0 0.00 0.00 0.00 72 1020.2
20260504020004 58 292 0.0 2.0 0.00 0.00 0.00 72 1020.2
20260504015904 58 292 0.0 2.0 0.00 0.00 0.00 72 1020.2
20260504015804 58 292 0.0 2.0 0.00 0.00 0.00 72 1020.2
20260504015704 58 292 0.0 2.0 0.00 0.00 0.00 72 1020.1
20260504015604 58 292 0.0 2.0 0.00 0.00 0.00 72 1020.2
20260504015504 59 292 0.0 2.0 0.00 0.00 0.00 72 1020.1
20260504015404 59 292 0.0 2.0 0.00 0.00 0.00 72 1020.2
20260504015304 59 292 0.0 2.0 0.00 0.00 0.00 72 1020.2
20260504015204 59 292 0.0 2.0 0.00 0.00 0.00 73 1020.1
20260504015104 59 292 0.0 2.0 0.00 0.00 0.00 73 1020.1
20260504015004 59 292 0.0 2.0 0.00 0.00 0.00 73 1020.1
20260504014904 59 292 0.0 2.0 0.00 0.00 0.00 73 1020.2
20260504014804 59 292 0.0 2.0 0.00 0.00 0.00 73 1020.1
20260504014704 59 292 0.0 2.0 0.00 0.00 0.00 73 1020.1
20260504014604 59 292 0.0 2.0 0.00 0.00 0.00 73 1020.1
20260504014504 59 292 0.0 2.0 0.00 0.00 0.00 73 1020.1
20260504014404 59 292 0.0 2.0 0.00 0.00 0.00 74 1020.1
20260504014304 59 292 0.0 2.0 0.00 0.00 0.00 74 1020.0
20260504014204 59 292 0.0 2.0 0.00 0.00 0.00 74 1020.1
20260504014104 59 292 0.0 2.0 0.00 0.00 0.00 74 1020.1
20260504014004 59 292 0.0 1.0 0.00 0.00 0.00 74 1020.1
20260504013904 59 0 0.0 0.0 0.00 0.00 0.00 74 1020.1
20260504013804 59 0 0.0 0.0 0.00 0.00 0.00 74 1020.1
20260504013704 59 0 0.0 0.0 0.00 0.00 0.00 74 1020.1
20260504013604 59 0 0.0 0.0 0.00 0.00 0.00 74 1020.1
20260504013404 59 0 0.0 0.0 0.00 0.00 0.00 75 1020.2
20260504013304 59 0 0.0 0.0 0.00 0.00 0.00 75 1020.1
20260504013204 59 0 0.0 0.0 0.00 0.00 0.00 75 1020.2
20260504013104 59 0 0.0 0.0 0.00 0.00 0.00 75 1020.2
20260504013004 59 0 0.0 0.0 0.00 0.00 0.00 75 1020.2
20260504012904 59 0 0.0 0.0 0.00 0.00 0.00 75 1020.2
20260504012804 59 0 0.0 0.0 0.00 0.00 0.00 75 1020.2
20260504012704 59 0 0.0 0.0 0.00 0.00 0.00 75 1020.2
20260504012604 59 0 0.0 0.0 0.00 0.00 0.00 75 1020.2
20260504012504 59 0 0.0 0.0 0.00 0.00 0.00 75 1020.2
20260504012404 59 0 0.0 0.0 0.00 0.00 0.00 75 1020.3
20260504012304 59 0 0.0 0.0 0.00 0.00 0.00 75 1020.3
20260504012204 60 0 0.0 0.0 0.00 0.00 0.00 75 1020.2
20260504012104 60 0 0.0 0.0 0.00 0.00 0.00 75 1020.1
20260504012004 60 0 0.0 0.0 0.00 0.00 0.00 75 1020.2
20260504011904 60 0 0.0 0.0 0.00 0.00 0.00 75 1020.2
20260504011804 60 0 0.0 0.0 0.00 0.00 0.00 75 1020.2
20260504011703 60 0 0.0 0.0 0.00 0.00 0.00 75 1020.1
20260504011604 60 0 0.0 0.0 0.00 0.00 0.00 75 1020.1
20260504011504 60 0 0.0 0.0 0.00 0.00 0.00 75 1020.1
20260504011404 60 0 0.0 0.0 0.00 0.00 0.00 75 1020.1
20260504011304 60 0 0.0 0.0 0.00 0.00 0.00 75 1020.1
20260504011203 60 0 0.0 0.0 0.00 0.00 0.00 75 1020.2
20260504011103 60 0 0.0 0.0 0.00 0.00 0.00 75 1020.2
20260504011003 60 0 0.0 0.0 0.00 0.00 0.00 75 1020.2
20260504010903 60 0 0.0 0.0 0.00 0.00 0.00 75 1020.1
20260504010803 60 0 0.0 0.0 0.00 0.00 0.00 75 1020.2
20260504010703 60 0 0.0 0.0 0.00 0.00 0.00 75 1020.1
20260504010603 60 292 0.0 2.0 0.00 0.00 0.00 75 1020.2
20260504010503 60 292 0.0 2.0 0.00 0.00 0.00 75 1020.2
20260504010404 60 292 0.0 2.0 0.00 0.00 0.00 75 1020.2
20260504010303 60 292 0.0 2.0 0.00 0.00 0.00 75 1020.1
20260504010203 60 292 0.0 2.0 0.00 0.00 0.00 75 1020.2
20260504010004 60 292 0.0 2.0 0.00 0.00 0.00 75 1020.1
20260504005903 60 292 0.0 2.0 0.00 0.00 0.00 75 1020.2
20260504005804 60 292 0.0 2.0 0.00 0.00 0.00 75 1020.2
20260504005703 60 292 0.0 2.0 0.00 0.00 0.00 75 1020.1
20260504005603 60 292 0.0 2.0 0.00 0.00 0.00 75 1020.2
20260504005503 60 292 0.0 2.0 0.00 0.00 0.00 75 1020.3
20260504005304 60 292 0.0 2.0 0.00 0.00 0.00 75 1020.3
20260504005104 60 292 0.0 3.0 0.00 0.00 0.00 75 1020.2
20260504005004 60 292 0.0 3.0 0.00 0.00 0.00 75 1020.2
20260504004903 60 294 0.0 3.0 0.00 0.00 0.00 75 1020.3
20260504004803 60 296 0.0 4.0 0.00 0.00 0.00 75 1020.3
20260504004703 60 295 0.0 5.0 0.00 0.00 0.00 75 1020.2
20260504004603 60 295 0.0 5.0 0.00 0.00 0.00 76 1020.2
20260504004503 60 295 1.0 5.0 0.00 0.00 0.00 75 1020.3
20260504004403 60 296 1.0 5.0 0.00 0.00 0.00 76 1020.2
20260504004303 60 295 1.0 5.0 0.00 0.00 0.00 76 1020.3
20260504004203 60 295 1.0 6.0 0.00 0.00 0.00 76 1020.2
20260504004103 60 295 1.0 6.0 0.00 0.00 0.00 76 1020.1
20260504004003 60 294 1.0 6.0 0.00 0.00 0.00 76 1020.1
20260504003903 60 294 1.0 6.0 0.00 0.00 0.00 76 1020.2
20260504003803 60 293 1.0 6.0 0.00 0.00 0.00 76 1020.3
20260504003703 60 293 1.0 6.0 0.00 0.00 0.00 76 1020.2
20260504003603 60 293 1.0 6.0 0.00 0.00 0.00 76 1020.1
20260504003503 60 293 1.0 6.0 0.00 0.00 0.00 76 1020.3
20260504003403 60 293 1.0 6.0 0.00 0.00 0.00 76 1020.2
20260504003303 60 293 1.0 6.0 0.00 0.00 0.00 76 1020.2
20260504003203 60 293 1.0 5.0 0.00 0.00 0.00 77 1020.1
20260504003103 60 293 1.0 5.0 0.00 0.00 0.00 77 1020.1
20260504003003 60 292 1.0 5.0 0.00 0.00 0.00 77 1020.1
20260504002903 60 292 1.0 5.0 0.00 0.00 0.00 77 1020.1
20260504002803 60 292 0.0 5.0 0.00 0.00 0.00 77 1020.2
20260504002703 60 292 0.0 3.0 0.00 0.00 0.00 77 1020.2
20260504002603 60 292 1.0 3.0 0.00 0.00 0.00 77 1020.1
20260504002503 60 292 0.0 3.0 0.00 0.00 0.00 77 1020.1
20260504002406 60 290 0.0 3.0 0.00 0.00 0.00 77 1020.1
20260504002304 60 290 0.0 3.0 0.00 0.00 0.00 77 1020.1
20260504002203 60 290 0.0 3.0 0.00 0.00 0.00 77 1020.1
20260504002003 60 292 0.0 3.0 0.00 0.00 0.00 77 1020.0
20260504001903 60 292 0.0 3.0 0.00 0.00 0.00 77 1020.1
20260504001803 60 292 0.0 3.0 0.00 0.00 0.00 77 1020.1
20260504001703 60 292 0.0 2.0 0.00 0.00 0.00 77 1020.1
20260504001603 60 292 0.0 2.0 0.00 0.00 0.00 77 1020.1
20260504001503 60 292 0.0 2.0 0.00 0.00 0.00 77 1020.1
20260504001403 60 292 0.0 2.0 0.00 0.00 0.00 77 1020.0
20260504001303 60 292 0.0 2.0 0.00 0.00 0.00 77 1020.0
20260504001203 60 292 0.0 4.0 0.00 0.00 0.00 77 1020.0
20260504001103 60 292 0.0 4.0 0.00 0.00 0.00 77 1020.0
20260504001003 60 292 0.0 4.0 0.00 0.00 0.00 77 1020.0
20260504000903 60 292 0.0 4.0 0.00 0.00 0.00 77 1020.1
20260504000803 60 292 0.0 4.0 0.00 0.00 0.00 78 1020.2
20260504000703 60 292 0.0 4.0 0.00 0.00 0.00 78 1020.2
20260504000603 60 292 0.0 4.0 0.00 0.00 0.00 77 1020.2
20260504000503 60 292 0.0 4.0 0.00 0.00 0.00 77 1020.2
20260504000403 60 293 0.0 4.0 0.00 0.00 0.00 77 1020.3
20260504000303 60 293 0.0 4.0 0.00 0.00 0.00 77 1020.3
20260504000204 60 293 0.0 3.0 0.00 0.00 0.00 77 1020.2
20260504000003 60 293 0.0 3.0 0.00 0.00 0.00 77 1020.3
20260503235903 60 293 0.0 3.0 0.00 0.00 0.00 77 1020.2
20260503235803 60 296 0.0 3.0 0.00 0.00 0.00 77 1020.4
20260503235703 60 300 0.0 2.0 0.00 0.00 0.00 77 1020.3
20260503235603 60 300 0.0 2.0 0.00 0.00 0.00 77 1020.3
20260503235503 60 300 1.0 2.0 0.00 0.00 0.00 77 1020.3
20260503235403 60 299 1.0 2.0 0.00 0.00 0.00 78 1020.4
20260503235304 60 299 1.0 2.0 0.00 0.00 0.00 77 1020.4
20260503235203 60 298 1.0 4.0 0.00 0.00 0.00 77 1020.3
20260503235103 60 299 1.0 4.0 0.00 0.00 0.00 77 1020.3
20260503235003 60 302 1.0 4.0 0.00 0.00 0.00 77 1020.4
20260503234903 60 300 1.0 4.0 0.00 0.00 0.00 77 1020.4
20260503234803 60 298 1.0 4.0 0.00 0.00 0.00 77 1020.3
20260503234703 60 296 1.0 4.0 0.00 0.00 0.00 77 1020.3
20260503234603 60 296 1.0 4.0 0.00 0.00 0.00 77 1020.4
20260503234503 60 295 1.0 4.0 0.00 0.00 0.00 77 1020.3
20260503234403 60 295 0.0 4.0 0.00 0.00 0.00 77 1020.4
20260503234303 60 295 1.0 4.0 0.00 0.00 0.00 77 1020.4
20260503234203 60 296 0.0 4.0 0.00 0.00 0.00 77 1020.3
20260503234103 60 297 0.0 3.0 0.00 0.00 0.00 77 1020.4
20260503234003 60 292 0.0 3.0 0.00 0.00 0.00 77 1020.4
20260503233903 60 292 0.0 1.0 0.00 0.00 0.00 77 1020.4
20260503233803 60 292 0.0 1.0 0.00 0.00 0.00 77 1020.4
20260503233703 60 292 0.0 1.0 0.00 0.00 0.00 77 1020.4
20260503233603 60 292 0.0 1.0 0.00 0.00 0.00 77 1020.4
20260503233503 60 292 0.0 1.0 0.00 0.00 0.00 77 1020.5
20260503233404 60 292 0.0 2.0 0.00 0.00 0.00 77 1020.5
20260503233304 60 292 0.0 2.0 0.00 0.00 0.00 77 1020.5
20260503233204 60 292 0.0 2.0 0.00 0.00 0.00 77 1020.5
20260503233104 60 292 0.0 2.0 0.00 0.00 0.00 77 1020.5
20260503233004 60 292 0.0 2.0 0.00 0.00 0.00 77 1020.5
20260503232904 60 292 0.0 2.0 0.00 0.00 0.00 77 1020.5
20260503232804 60 292 0.0 2.0 0.00 0.00 0.00 77 1020.7
20260503232704 60 292 0.0 2.0 0.00 0.00 0.00 77 1020.6
20260503232604 60 292 0.0 2.0 0.00 0.00 0.00 77 1020.6
20260503232504 60 292 0.0 2.0 0.00 0.00 0.00 77 1020.6
20260503232404 60 292 0.0 2.0 0.00 0.00 0.00 77 1020.6
20260503232305 60 292 0.0 2.0 0.00 0.00 0.00 77 1020.6
20260503232204 60 292 0.0 2.0 0.00 0.00 0.00 77 1020.6
20260503232104 60 292 0.0 2.0 0.00 0.00 0.00 77 1020.5
20260503232004 60 292 0.0 2.0 0.00 0.00 0.00 77 1020.6
20260503231904 60 292 0.0 2.0 0.00 0.00 0.00 77 1020.6
20260503231804 60 292 0.0 2.0 0.00 0.00 0.00 77 1020.6
20260503231704 60 292 0.0 2.0 0.00 0.00 0.00 77 1020.6
20260503231604 60 292 0.0 2.0 0.00 0.00 0.00 77 1020.6
20260503231504 60 292 1.0 2.0 0.00 0.00 0.00 77 1020.7
20260503231404 60 292 1.0 3.0 0.00 0.00 0.00 77 1020.6
20260503231304 60 292 1.0 3.0 0.00 0.00 0.00 77 1020.6
20260503231204 60 292 1.0 4.0 0.00 0.00 0.00 77 1020.6
20260503231003 60 292 1.0 4.0 0.00 0.00 0.00 77 1020.5
20260503230903 60 292 1.0 4.0 0.00 0.00 0.00 77 1020.6
20260503230803 60 292 1.0 4.0 0.00 0.00 0.00 77 1020.6
20260503230703 60 292 1.0 4.0 0.00 0.00 0.00 77 1020.6
20260503230603 60 292 1.0 4.0 0.00 0.00 0.00 77 1020.6
20260503230503 60 292 1.0 4.0 0.00 0.00 0.00 77 1020.6
20260503230403 60 292 1.0 4.0 0.00 0.00 0.00 77 1020.7
20260503230303 60 292 0.0 4.0 0.00 0.00 0.00 77 1020.6
20260503230203 60 292 0.0 4.0 0.00 0.00 0.00 76 1020.7
20260503230103 60 292 0.0 2.0 0.00 0.00 0.00 77 1020.7
20260503230003 60 292 0.0 2.0 0.00 0.00 0.00 77 1020.9
20260503225903 60 292 0.0 2.0 0.00 0.00 0.00 77 1020.9
20260503225803 60 292 0.0 5.0 0.00 0.00 0.00 77 1021.0
20260503225704 60 292 1.0 5.0 0.00 0.00 0.00 77 1020.9
20260503225603 60 292 1.0 5.0 0.00 0.00 0.00 77 1020.9
20260503225503 60 294 1.0 5.0 0.00 0.00 0.00 77 1021.0
20260503225403 60 294 1.0 5.0 0.00 0.00 0.00 77 1020.9
20260503225304 60 293 1.0 5.0 0.00 0.00 0.00 77 1020.9
20260503225203 60 293 1.0 5.0 0.00 0.00 0.00 77 1021.0
20260503225103 60 294 1.0 5.0 0.00 0.00 0.00 77 1021.0
20260503225003 60 294 1.0 5.0 0.00 0.00 0.00 77 1021.0
20260503224903 60 294 1.0 5.0 0.00 0.00 0.00 77 1021.1
20260503224803 60 294 1.0 4.0 0.00 0.00 0.00 77 1021.0
20260503224703 60 294 1.0 4.0 0.00 0.00 0.00 77 1021.0
20260503224603 60 294 1.0 4.0 0.00 0.00 0.00 77 1021.1
20260503224503 60 293 1.0 4.0 0.00 0.00 0.00 77 1021.0
20260503224403 60 292 1.0 4.0 0.00 0.00 0.00 76 1021.1
20260503224303 60 292 1.0 4.0 0.00 0.00 0.00 77 1021.0
20260503224203 60 293 1.0 4.0 0.00 0.00 0.00 76 1021.0
20260503224103 60 293 1.0 4.0 0.00 0.00 0.00 76 1021.0
20260503224003 60 293 1.0 4.0 0.00 0.00 0.00 76 1020.9
20260503223903 60 293 1.0 4.0 0.00 0.00 0.00 76 1021.0
20260503223803 60 293 1.0 4.0 0.00 0.00 0.00 76 1021.0
20260503223703 60 294 1.0 4.0 0.00 0.00 0.00 76 1021.0
20260503223603 60 294 1.0 4.0 0.00 0.00 0.00 76 1021.0
20260503223503 60 294 0.0 4.0 0.00 0.00 0.00 76 1021.0
20260503223403 60 298 0.0 4.0 0.00 0.00 0.00 76 1021.0
20260503223303 60 301 0.0 2.0 0.00 0.00 0.00 76 1021.0
20260503223203 60 315 0.0 2.0 0.00 0.00 0.00 76 1020.9
20260503223103 60 0 0.0 0.0 0.00 0.00 0.00 76 1021.0
20260503223003 60 0 0.0 0.0 0.00 0.00 0.00 76 1021.0
20260503222903 60 0 0.0 0.0 0.00 0.00 0.00 76 1021.0
20260503222803 60 315 0.0 2.0 0.00 0.00 0.00 76 1021.0
20260503222703 60 315 0.0 2.0 0.00 0.00 0.00 76 1021.0
20260503222603 60 302 0.0 2.0 0.00 0.00 0.00 76 1021.0
20260503222503 60 299 0.0 2.0 0.00 0.00 0.00 76 1021.0
20260503222403 60 299 0.0 2.0 0.00 0.00 0.00 76 1021.0
20260503222304 60 299 0.0 2.0 0.00 0.00 0.00 76 1020.9
20260503222203 60 299 0.0 2.0 0.00 0.00 0.00 76 1020.8
20260503222103 60 299 0.0 2.0 0.00 0.00 0.00 76 1020.9
20260503222003 60 299 0.0 2.0 0.00 0.00 0.00 76 1020.8
20260503221903 60 297 0.0 2.0 0.00 0.00 0.00 76 1020.8
20260503221803 60 294 0.0 2.0 0.00 0.00 0.00 76 1020.9
20260503221703 60 294 0.0 2.0 0.00 0.00 0.00 76 1020.8
20260503221603 60 294 0.0 2.0 0.00 0.00 0.00 76 1020.9
20260503221503 60 292 0.0 2.0 0.00 0.00 0.00 76 1020.9
20260503221403 60 292 0.0 2.0 0.00 0.00 0.00 76 1020.9
20260503221303 60 292 0.0 2.0 0.00 0.00 0.00 76 1021.0
20260503221203 60 292 0.0 2.0 0.00 0.00 0.00 76 1021.0
20260503221103 60 292 0.0 2.0 0.00 0.00 0.00 76 1021.0
20260503221003 60 292 0.0 2.0 0.00 0.00 0.00 76 1021.1
20260503220903 60 292 0.0 2.0 0.00 0.00 0.00 76 1021.0
20260503220803 60 292 0.0 2.0 0.00 0.00 0.00 76 1020.9
20260503220703 60 292 0.0 2.0 0.00 0.00 0.00 76 1020.9
20260503220603 60 292 0.0 1.0 0.00 0.00 0.00 76 1020.9
20260503220503 60 292 0.0 1.0 0.00 0.00 0.00 76 1021.0
20260503220403 60 292 0.0 1.0 0.00 0.00 0.00 76 1020.8
20260503220303 60 0 0.0 0.0 0.00 0.00 0.00 76 1020.9
20260503220203 60 292 0.0 1.0 0.00 0.00 0.00 76 1021.0
20260503220104 60 292 0.0 1.0 0.00 0.00 0.00 76 1021.0
20260503220039 60 292 0.0 2.0 0.00 0.00 0.00 76 1021.0
20260503215904 60 292 0.0 2.0 0.00 0.00 0.00 76 1020.9
20260503215804 60 292 0.0 2.0 0.00 0.00 0.00 76 1020.9
20260503215704 60 292 0.0 2.0 0.00 0.00 0.00 76 1020.9
20260503215604 60 292 0.0 2.0 0.00 0.00 0.00 76 1020.8
20260503215504 60 292 0.0 2.0 0.00 0.00 0.00 76 1020.9
20260503215404 60 292 0.0 2.0 0.00 0.00 0.00 76 1020.8
20260503215304 60 292 0.0 2.0 0.00 0.00 0.00 76 1020.9
20260503215204 60 292 0.0 2.0 0.00 0.00 0.00 76 1020.9
20260503215104 60 292 0.0 2.0 0.00 0.00 0.00 76 1020.9
20260503215004 60 292 0.0 1.0 0.00 0.00 0.00 75 1021.0
20260503214904 60 0 0.0 0.0 0.00 0.00 0.00 75 1020.9
20260503214804 60 0 0.0 0.0 0.00 0.00 0.00 75 1020.9
20260503214704 60 0 0.0 0.0 0.00 0.00 0.00 75 1021.0
20260503214604 60 0 0.0 0.0 0.00 0.00 0.00 75 1021.0
20260503214504 60 0 0.0 0.0 0.00 0.00 0.00 75 1021.0
20260503214404 60 0 0.0 0.0 0.00 0.00 0.00 75 1021.0
20260503214304 60 0 0.0 0.0 0.00 0.00 0.00 75 1020.9
20260503214204 60 0 0.0 0.0 0.00 0.00 0.00 75 1020.9
20260503214104 60 0 0.0 0.0 0.00 0.00 0.00 76 1021.0
20260503214004 60 0 0.0 0.0 0.00 0.00 0.00 76 1020.9
20260503213904 60 0 0.0 0.0 0.00 0.00 0.00 76 1021.0
20260503213804 60 0 0.0 0.0 0.00 0.00 0.00 76 1021.0
20260503213704 60 0 0.0 0.0 0.00 0.00 0.00 76 1021.0
20260503213604 60 0 0.0 0.0 0.00 0.00 0.00 76 1021.0
20260503213504 60 292 0.0 2.0 0.00 0.00 0.00 76 1021.1
20260503213404 60 292 0.0 2.0 0.00 0.00 0.00 76 1021.0
20260503213304 60 292 0.0 2.0 0.00 0.00 0.00 76 1021.0
20260503213204 60 292 0.0 2.0 0.00 0.00 0.00 76 1021.0
20260503213104 60 292 0.0 2.0 0.00 0.00 0.00 76 1021.0
20260503213004 60 292 0.0 2.0 0.00 0.00 0.00 76 1021.0
20260503212904 60 292 0.0 2.0 0.00 0.00 0.00 76 1021.0
20260503212804 60 292 0.0 2.0 0.00 0.00 0.00 76 1020.9
20260503212704 60 292 0.0 2.0 0.00 0.00 0.00 76 1020.9
20260503212604 60 292 0.0 2.0 0.00 0.00 0.00 76 1020.9
20260503212503 60 292 0.0 2.0 0.00 0.00 0.00 76 1020.9
20260503212403 60 292 0.0 2.0 0.00 0.00 0.00 76 1020.9
20260503212305 60 296 0.0 3.0 0.00 0.00 0.00 76 1020.9
20260503212203 60 295 0.0 3.0 0.00 0.00 0.00 76 1020.9
20260503212104 60 295 0.0 3.0 0.00 0.00 0.00 76 1020.9
20260503212004 60 295 0.0 3.0 0.00 0.00 0.00 76 1020.9
20260503211903 60 295 0.0 3.0 0.00 0.00 0.00 76 1020.9
20260503211803 60 293 0.0 3.0 0.00 0.00 0.00 75 1020.8
20260503211703 60 296 0.0 3.0 0.00 0.00 0.00 75 1020.9
20260503211603 60 297 0.0 3.0 0.00 0.00 0.00 75 1020.8
20260503211503 60 296 1.0 3.0 0.00 0.00 0.00 75 1020.8
20260503211403 60 296 1.0 3.0 0.00 0.00 0.00 75 1020.8
20260503211303 60 294 1.0 3.0 0.00 0.00 0.00 75 1020.8
20260503211204 60 294 1.0 3.0 0.00 0.00 0.00 75 1020.8
20260503211103 60 294 1.0 3.0 0.00 0.00 0.00 75 1020.9
20260503211003 61 294 1.0 3.0 0.00 0.00 0.00 75 1020.9
20260503210903 61 294 1.0 3.0 0.00 0.00 0.00 75 1020.9
20260503210803 61 294 1.0 3.0 0.00 0.00 0.00 75 1020.9
20260503210703 61 292 1.0 4.0 0.00 0.00 0.00 75 1021.1
20260503210603 61 292 1.0 4.0 0.00 0.00 0.00 75 1021.0
20260503210503 61 292 1.0 4.0 0.00 0.00 0.00 75 1021.0
20260503210403 61 292 1.0 4.0 0.00 0.00 0.00 75 1021.1
20260503210303 61 292 1.0 4.0 0.00 0.00 0.00 75 1021.1
20260503210203 61 292 1.0 4.0 0.00 0.00 0.00 75 1021.1
20260503210103 61 291 1.0 4.0 0.00 0.00 0.00 75 1021.0
20260503210004 61 291 1.0 4.0 0.00 0.00 0.00 75 1021.0
20260503205904 61 291 1.0 4.0 0.00 0.00 0.00 75 1021.0
20260503205803 61 291 1.0 4.0 0.00 0.00 0.00 75 1020.9
20260503205703 61 291 1.0 4.0 0.00 0.00 0.00 75 1021.0
20260503205603 61 290 1.0 4.0 0.00 0.00 0.00 75 1021.0
20260503205503 61 290 1.0 4.0 0.00 0.00 0.00 75 1021.1
20260503205403 61 290 1.0 4.0 0.00 0.00 0.00 75 1021.0
20260503205304 61 290 1.0 4.0 0.00 0.00 0.00 75 1021.0
20260503205203 61 290 1.0 4.0 0.00 0.00 0.00 75 1021.0
20260503205103 61 292 0.0 3.0 0.00 0.00 0.00 74 1020.9
20260503205003 61 292 0.0 3.0 0.00 0.00 0.00 74 1021.0
20260503204903 61 292 0.0 2.0 0.00 0.00 0.00 74 1020.9
20260503204803 61 292 0.0 2.0 0.00 0.00 0.00 74 1020.9
20260503204703 61 292 0.0 2.0 0.00 0.00 0.00 74 1021.0
20260503204603 61 291 0.0 2.0 0.00 0.00 0.00 74 1020.9
20260503204503 61 290 0.0 2.0 0.00 0.00 0.00 74 1020.9
20260503204403 61 290 0.0 3.0 0.00 0.00 0.00 74 1020.8
20260503204303 61 290 0.0 3.0 0.00 0.00 0.00 74 1021.0
20260503204203 61 295 0.0 5.0 0.00 0.00 0.00 74 1021.0
20260503204103 61 294 1.0 5.0 0.00 0.00 0.00 74 1021.0
20260503204003 61 294 1.0 5.0 0.00 0.00 0.00 74 1021.0
20260503203903 61 294 1.0 5.0 0.00 0.00 0.00 74 1021.0
20260503203803 61 294 1.0 5.0 0.00 0.00 0.00 74 1021.0
20260503203703 61 294 1.0 5.0 0.00 0.00 0.00 74 1020.9
20260503203603 61 294 1.0 5.0 0.00 0.00 0.00 74 1020.9
20260503203503 61 294 1.0 5.0 0.00 0.00 0.00 74 1020.9
20260503203403 61 294 1.0 5.0 0.00 0.00 0.00 74 1020.9
20260503203303 61 294 1.0 5.0 0.00 0.00 0.00 74 1020.9
20260503203203 61 293 1.0 4.0 0.00 0.00 0.00 74 1020.8
20260503203103 61 293 1.0 4.0 0.00 0.00 0.00 73 1020.9
20260503203003 61 294 1.0 4.0 0.00 0.00 0.00 73 1020.8
20260503202903 61 294 1.0 4.0 0.00 0.00 0.00 74 1020.8
20260503202803 61 294 1.0 4.0 0.00 0.00 0.00 74 1020.8
20260503202703 61 294 0.0 4.0 0.00 0.00 0.00 74 1020.8
20260503202603 61 297 0.0 4.0 0.00 0.00 0.00 74 1020.8
20260503202503 61 296 0.0 4.0 0.00 0.00 0.00 74 1020.7
20260503202403 61 292 0.0 4.0 0.00 0.00 0.00 74 1020.8
20260503202304 61 292 0.0 4.0 0.00 0.00 0.00 73 1020.7
20260503202203 61 288 0.0 3.0 0.00 0.00 0.00 74 1020.7
20260503202103 61 288 1.0 4.0 0.00 0.00 0.00 73 1020.8
20260503202003 61 288 1.0 4.0 0.00 0.00 0.00 73 1020.9
20260503201903 61 288 1.0 4.0 0.00 0.00 0.00 73 1020.9
20260503201803 61 288 1.0 4.0 0.00 0.00 0.00 73 1020.8
20260503201703 61 289 1.0 4.0 0.00 0.00 0.00 73 1020.9
20260503201603 61 289 1.0 4.0 0.00 0.00 0.00 73 1020.9
20260503201503 61 289 1.0 4.0 0.00 0.00 0.00 73 1021.0
20260503201403 61 291 1.0 4.0 0.00 0.00 0.00 73 1021.0
20260503201303 61 291 1.0 4.0 0.00 0.00 0.00 73 1021.0
20260503201203 61 291 0.0 4.0 0.00 0.00 0.00 73 1020.9
20260503201103 61 290 0.0 3.0 0.00 0.00 0.00 73 1020.9
20260503201003 61 292 0.0 3.0 0.00 0.00 0.00 73 1020.9
20260503200903 61 292 0.0 3.0 0.00 0.00 0.00 73 1020.8
20260503200803 61 292 0.0 3.0 0.00 0.00 0.00 73 1020.8
20260503200703 61 292 0.0 3.0 0.00 0.00 0.00 73 1020.9
20260503200603 61 292 0.0 3.0 0.00 0.00 0.00 73 1020.9
20260503200503 61 292 0.0 3.0 0.00 0.00 0.00 72 1020.8
20260503200403 61 292 0.0 3.0 0.00 0.00 0.00 72 1020.8
20260503200303 61 292 1.0 3.0 0.00 0.00 0.00 72 1020.8
20260503200203 61 292 1.0 3.0 0.00 0.00 0.00 72 1020.7
20260503200003 61 292 1.0 3.0 0.00 0.00 0.00 72 1020.7
20260503195903 61 292 1.0 3.0 0.00 0.00 0.00 72 1020.7
20260503195803 61 292 0.0 3.0 0.00 0.00 0.00 72 1020.7
20260503195703 61 292 0.0 2.0 0.00 0.00 0.00 72 1020.8
20260503195603 61 292 0.0 2.0 0.00 0.00 0.00 72 1020.8
20260503195503 61 292 0.0 3.0 0.00 0.00 0.00 72 1020.8
20260503195403 61 293 1.0 3.0 0.00 0.00 0.00 72 1020.8
20260503195304 61 293 0.0 3.0 0.00 0.00 0.00 72 1020.7
20260503195203 61 293 0.0 3.0 0.00 0.00 0.00 71 1020.9
20260503195103 61 293 0.0 3.0 0.00 0.00 0.00 71 1020.9
20260503195003 61 293 1.0 3.0 0.00 0.00 0.00 71 1020.9
20260503194903 61 293 1.0 3.0 0.00 0.00 0.00 71 1020.8
20260503194803 61 293 1.0 4.0 0.00 0.00 0.00 71 1020.8
20260503194703 61 293 1.0 4.0 0.00 0.00 0.00 71 1020.8
20260503194603 61 293 1.0 4.0 0.00 0.00 0.00 71 1020.8
20260503194503 61 292 1.0 4.0 0.00 0.00 0.00 71 1020.9
20260503194403 61 292 1.0 4.0 0.00 0.00 0.00 71 1020.7
20260503194303 61 291 1.0 4.0 0.00 0.00 0.00 71 1021.0
20260503194204 61 291 1.0 4.0 0.00 0.00 0.00 71 1021.0
20260503194104 61 291 1.0 4.0 0.00 0.00 0.00 71 1021.0
20260503194004 61 291 1.0 4.0 0.00 0.00 0.00 71 1021.0
20260503193904 61 291 1.0 4.0 0.00 0.00 0.00 71 1021.0
20260503193804 61 291 1.0 4.0 0.00 0.00 0.00 71 1021.0
20260503193704 61 291 1.0 4.0 0.00 0.00 0.00 71 1021.0
20260503193604 61 291 1.0 4.0 0.00 0.00 0.00 71 1021.1
20260503193504 61 292 1.0 4.0 0.00 0.00 0.00 71 1021.0
20260503193404 61 292 1.0 4.0 0.00 0.00 0.00 71 1021.1
20260503193304 61 292 1.0 6.0 0.00 0.00 0.00 71 1021.0
20260503193204 62 293 1.0 6.0 0.00 0.00 0.00 71 1021.0
20260503193104 62 292 1.0 6.0 0.00 0.00 0.00 71 1021.0
20260503193004 62 292 1.0 6.0 0.00 0.00 0.00 71 1021.0
20260503192904 62 292 1.0 6.0 0.00 0.00 0.00 70 1021.0
20260503192804 62 291 1.0 6.0 0.00 0.00 0.00 70 1021.0
20260503192704 62 291 1.0 6.0 0.00 0.00 0.00 70 1020.9
20260503192604 62 291 1.0 6.0 0.00 0.00 0.00 70 1020.9
20260503192504 62 292 1.0 6.0 0.00 0.00 0.00 70 1020.9
20260503192404 62 292 1.0 6.0 0.00 0.00 0.00 70 1021.0
20260503192305 62 292 1.0 4.0 0.00 0.00 0.00 70 1020.9
20260503192204 62 292 1.0 4.0 0.00 0.00 0.00 70 1021.0
20260503192104 62 293 1.0 4.0 0.00 0.00 0.00 70 1020.9
20260503192004 62 294 1.0 4.0 0.00 0.00 0.00 69 1021.0
20260503191904 62 293 1.0 4.0 0.00 0.00 0.00 69 1021.0
20260503191804 62 294 1.0 4.0 0.00 0.00 0.00 69 1020.9
20260503191704 62 295 1.0 4.0 0.00 0.00 0.00 69 1020.9
20260503191604 62 295 1.0 4.0 0.00 0.00 0.00 69 1020.9
20260503191504 62 293 0.0 4.0 0.00 0.00 0.00 69 1020.8
20260503191404 62 294 0.0 4.0 0.00 0.00 0.00 69 1020.9
20260503191304 62 294 0.0 4.0 0.00 0.00 0.00 69 1020.8
20260503191204 62 294 0.0 4.0 0.00 0.00 0.00 69 1020.8
20260503191104 62 294 0.0 4.0 0.00 0.00 0.00 68 1020.8
20260503191004 62 292 0.0 4.0 0.00 0.00 0.00 69 1020.7
20260503190904 62 292 0.0 2.0 0.00 0.00 0.00 68 1020.7
20260503190804 62 292 0.0 2.0 0.00 0.00 0.00 68 1020.7
20260503190704 62 292 0.0 2.0 0.00 0.00 0.00 68 1020.8
20260503190604 62 292 0.0 1.0 0.00 0.00 0.00 68 1020.8
20260503190504 62 292 0.0 1.0 0.00 0.00 0.00 68 1020.7
20260503190404 62 292 0.0 1.0 0.00 0.00 0.00 68 1020.8
20260503190304 62 292 0.0 1.0 0.00 0.00 0.00 68 1020.8
20260503190204 62 292 0.0 1.0 0.00 0.00 0.00 68 1020.6
20260503190103 62 292 0.0 2.0 0.00 0.00 0.00 68 1020.6
20260503190004 62 292 0.0 2.0 0.00 0.00 0.00 68 1020.7
20260503185904 62 292 0.0 2.0 0.00 0.00 0.00 68 1020.7
20260503185804 62 292 0.0 2.0 0.00 0.00 0.00 68 1020.7
20260503185704 62 292 0.0 2.0 0.00 0.00 0.00 68 1020.7
20260503185604 63 292 0.0 2.0 0.00 0.00 0.00 68 1020.6
20260503185504 63 292 0.0 2.0 0.00 0.00 0.00 68 1020.6
20260503185404 63 292 0.0 2.0 0.00 0.00 0.00 68 1020.6
20260503185305 63 292 0.0 2.0 0.00 0.00 0.00 68 1020.5
20260503185203 63 292 0.0 2.0 0.00 0.00 0.00 68 1020.6
20260503185103 63 292 0.0 6.0 0.00 0.00 0.00 68 1020.5
20260503185004 63 295 0.0 6.0 0.00 0.00 0.00 68 1020.5
20260503184903 63 298 1.0 6.0 0.00 0.00 0.00 68 1020.5
20260503184803 63 300 1.0 6.0 0.00 0.00 0.00 68 1020.5
20260503184704 63 300 1.0 6.0 0.00 0.00 0.00 68 1020.5
20260503184603 63 299 1.0 6.0 0.00 0.00 0.00 68 1020.5
20260503184503 63 301 1.0 6.0 0.00 0.00 0.00 68 1020.5
20260503184403 63 301 1.0 6.0 0.00 0.00 0.00 68 1020.5
20260503184303 63 301 1.0 6.0 0.00 0.00 0.00 68 1020.5
20260503184203 63 300 2.0 6.0 0.00 0.00 0.00 68 1020.5
20260503184103 63 303 1.0 5.0 0.00 0.00 0.00 68 1020.4
20260503184003 63 303 2.0 5.0 0.00 0.00 0.00 68 1020.4
20260503183903 63 302 2.0 5.0 0.00 0.00 0.00 68 1020.4
20260503183803 63 302 2.0 5.0 0.00 0.00 0.00 67 1020.3
20260503183703 63 303 2.0 6.0 0.00 0.00 0.00 67 1020.3
20260503183603 63 303 2.0 6.0 0.00 0.00 0.00 67 1020.3
20260503183503 63 303 2.0 6.0 0.00 0.00 0.00 67 1020.3
20260503183403 63 303 2.0 6.0 0.00 0.00 0.00 67 1020.3
20260503183303 63 305 2.0 6.0 0.00 0.00 0.00 67 1020.2
20260503183203 63 306 2.0 6.0 0.00 0.00 0.00 67 1020.2
20260503183103 63 304 2.0 6.0 0.00 0.00 0.00 67 1020.2
20260503183003 63 305 2.0 6.0 0.00 0.00 0.00 67 1020.2
20260503182903 63 305 3.0 6.0 0.00 0.00 0.00 67 1020.2
20260503182803 63 305 2.0 6.0 0.00 0.00 0.00 67 1020.2
20260503182704 63 303 3.0 6.0 0.00 0.00 0.00 67 1020.1
20260503182603 63 303 3.0 6.0 0.00 0.00 0.00 67 1020.3
20260503182503 63 303 3.0 6.0 0.00 0.00 0.00 67 1020.2
20260503182403 63 302 2.0 6.0 0.00 0.00 0.00 67 1020.3
20260503182305 63 301 2.0 6.0 0.00 0.00 0.00 67 1020.2
20260503182203 63 300 2.0 6.0 0.00 0.00 0.00 67 1020.2
20260503182103 63 302 2.0 6.0 0.00 0.00 0.00 67 1020.3
20260503182004 63 301 2.0 6.0 0.00 0.00 0.00 67 1020.2
20260503181903 63 300 2.0 6.0 0.00 0.00 0.00 67 1020.1
20260503181803 63 300 2.0 6.0 0.00 0.00 0.00 67 1020.1
20260503181703 63 302 2.0 5.0 0.00 0.00 0.00 67 1020.2
20260503181603 63 303 2.0 5.0 0.00 0.00 0.00 67 1020.2
20260503181504 63 303 2.0 5.0 0.00 0.00 0.00 67 1020.2
20260503181403 63 304 2.0 5.0 0.00 0.00 0.00 67 1020.2
20260503181303 63 303 2.0 5.0 0.00 0.00 0.00 66 1020.3
20260503181203 63 303 2.0 5.0 0.00 0.00 0.00 66 1020.3
20260503181103 63 301 3.0 6.0 0.00 0.00 0.00 66 1020.2
20260503181004 63 300 3.0 8.0 0.00 0.00 0.00 66 1020.3
20260503180903 63 299 3.0 8.0 0.00 0.00 0.00 66 1020.3
20260503180803 64 299 3.0 8.0 0.00 0.00 0.00 66 1020.1
20260503180703 64 298 3.0 8.0 0.00 0.00 0.00 66 1020.0
20260503180603 64 299 4.0 8.0 0.00 0.00 0.00 66 1020.1
20260503180503 64 300 4.0 8.0 0.00 0.00 0.00 66 1020.1
20260503180403 64 300 4.0 8.0 0.00 0.00 0.00 66 1020.0
20260503180303 64 301 4.0 8.0 0.00 0.00 0.00 66 1020.0
20260503180203 64 300 4.0 8.0 0.00 0.00 0.00 66 1020.0
20260503180103 64 301 4.0 8.0 0.00 0.00 0.00 65 1020.1
20260503180003 64 300 4.0 8.0 0.00 0.00 0.00 65 1020.1
20260503175903 64 300 4.0 8.0 0.00 0.00 0.00 65 1020.1
20260503175803 64 301 4.0 8.0 0.00 0.00 0.00 65 1020.0
20260503175703 64 301 4.0 8.0 0.00 0.00 0.00 65 1020.0
20260503175603 64 300 4.0 7.0 0.00 0.00 0.00 64 1020.0
20260503175503 64 299 4.0 7.0 0.00 0.00 0.00 64 1020.0
20260503175403 64 299 4.0 7.0 0.00 0.00 0.00 64 1020.0
20260503175304 64 297 4.0 8.0 0.00 0.00 0.00 64 1020.0
20260503175203 64 298 4.0 8.0 0.00 0.00 0.00 64 1020.0
20260503175103 64 298 4.0 8.0 0.00 0.00 0.00 64 1020.0
20260503175003 64 299 4.0 8.0 0.00 0.00 0.00 63 1020.0
20260503174903 64 299 4.0 8.0 0.00 0.00 0.00 63 1019.9
20260503174803 64 299 4.0 8.0 0.00 0.00 0.00 63 1019.8
20260503174703 64 299 4.0 8.0 0.00 0.00 0.00 63 1019.9
20260503174603 64 298 4.0 8.0 0.00 0.00 0.00 63 1020.0
20260503174503 64 299 4.0 8.0 0.00 0.00 0.00 63 1019.9
20260503174403 64 301 4.0 8.0 0.00 0.00 0.00 62 1019.9
20260503174303 64 302 4.0 7.0 0.00 0.00 0.00 62 1020.0
20260503174203 64 301 4.0 7.0 0.00 0.00 0.00 62 1020.0
20260503174103 64 300 4.0 7.0 0.00 0.00 0.00 62 1020.0
20260503174003 64 300 3.0 7.0 0.00 0.00 0.00 61 1019.9
20260503173903 64 300 3.0 7.0 0.00 0.00 0.00 61 1020.0
20260503173803 65 300 3.0 7.0 0.00 0.00 0.00 61 1020.0
20260503173703 65 299 3.0 7.0 0.00 0.00 0.00 61 1020.0
20260503173603 65 300 3.0 7.0 0.00 0.00 0.00 61 1020.0
20260503173503 65 298 3.0 7.0 0.00 0.00 0.00 61 1020.0
20260503173403 65 297 3.0 7.0 0.00 0.00 0.00 61 1020.0
20260503173303 65 299 3.0 7.0 0.00 0.00 0.00 61 1020.0
20260503173203 65 301 3.0 7.0 0.00 0.00 0.00 61 1020.0
20260503173103 65 301 3.0 7.0 0.00 0.00 0.00 61 1019.9
20260503173003 65 301 4.0 8.0 0.00 0.00 0.00 61 1020.0
20260503172903 65 301 4.0 8.0 0.00 0.00 0.00 61 1020.0
20260503172803 65 301 4.0 8.0 0.00 0.00 0.00 61 1019.9
20260503172703 65 302 4.0 8.0 0.00 0.00 0.00 61 1020.0
20260503172603 65 303 4.0 8.0 0.00 0.00 0.00 61 1019.9
20260503172503 65 302 4.0 8.0 0.00 0.00 0.00 61 1020.0
20260503172403 65 301 4.0 8.0 0.00 0.00 0.00 62 1020.0
20260503172305 65 300 4.0 8.0 0.00 0.00 0.00 62 1019.9
20260503172203 65 300 4.0 8.0 0.00 0.00 0.00 62 1019.9
20260503172104 65 300 4.0 8.0 0.00 0.00 0.00 62 1019.8
20260503172004 65 300 4.0 8.0 0.00 0.00 0.00 62 1019.9
20260503171904 65 300 4.0 8.0 0.00 0.00 0.00 62 1019.8
20260503171804 65 300 4.0 8.0 0.00 0.00 0.00 61 1019.9
20260503171704 65 299 4.0 8.0 0.00 0.00 0.00 61 1019.8
20260503171604 65 298 4.0 8.0 0.00 0.00 0.00 62 1019.8
20260503171504 65 299 4.0 8.0 0.00 0.00 0.00 62 1019.7
20260503171404 65 299 4.0 8.0 0.00 0.00 0.00 62 1019.8
20260503171304 65 299 4.0 8.0 0.00 0.00 0.00 62 1019.8
20260503171204 65 298 3.0 8.0 0.00 0.00 0.00 62 1019.8
20260503171104 65 298 3.0 8.0 0.00 0.00 0.00 62 1019.8
20260503171004 65 297 3.0 8.0 0.00 0.00 0.00 62 1019.8
20260503170904 65 296 3.0 8.0 0.00 0.00 0.00 62 1019.9
20260503170804 65 295 3.0 8.0 0.00 0.00 0.00 62 1019.8
20260503170705 65 296 3.0 7.0 0.00 0.00 0.00 62 1019.9
20260503170604 65 295 3.0 7.0 0.00 0.00 0.00 62 1019.9
20260503170504 65 294 3.0 7.0 0.00 0.00 0.00 62 1019.9
20260503170404 65 293 3.0 7.0 0.00 0.00 0.00 62 1019.9
20260503170304 65 292 3.0 7.0 0.00 0.00 0.00 62 1019.9
20260503170204 65 292 3.0 7.0 0.00 0.00 0.00 62 1019.9
20260503170104 65 291 3.0 7.0 0.00 0.00 0.00 63 1019.7
20260503160203 67 297 3.0 10.0 0.00 0.00 0.00 60 1019.8
20260503160103 67 296 4.0 10.0 0.00 0.00 0.00 60 1019.8
20260503151003 67 298 3.0 10.0 0.00 0.00 0.00 57 1019.9
20260503150903 67 297 3.0 10.0 0.00 0.00 0.00 58 1019.9
20260503150803 67 298 3.0 10.0 0.00 0.00 0.00 58 1020.0
20260503150703 67 297 3.0 10.0 0.00 0.00 0.00 58 1020.0
20260503150603 67 296 4.0 10.0 0.00 0.00 0.00 59 1020.0
20260503150503 67 297 4.0 10.0 0.00 0.00 0.00 59 1020.0
20260503150404 67 296 4.0 10.0 0.00 0.00 0.00 59 1020.0
20260503150304 67 297 5.0 10.0 0.00 0.00 0.00 59 1020.0
20260503150204 67 298 5.0 13.0 0.00 0.00 0.00 59 1020.0
20260503150104 67 299 5.0 13.0 0.00 0.00 0.00 59 1020.1
20260503140303 68 299 5.0 13.0 0.00 0.00 0.00 61 1020.0
20260503140103 68 297 5.0 14.0 0.00 0.00 0.00 61 1019.9
20260503131403 67 300 5.0 14.0 0.00 0.00 0.00 60 1020.4
20260503131303 67 300 5.0 14.0 0.00 0.00 0.00 60 1020.5
20260503131203 67 300 6.0 14.0 0.00 0.00 0.00 60 1020.5
20260503131103 67 301 6.0 14.0 0.00 0.00 0.00 60 1020.5
20260503130903 67 301 7.0 19.0 0.00 0.00 0.00 60 1020.3
20260503130803 67 300 7.0 19.0 0.00 0.00 0.00 60 1020.5
20260503130703 67 299 7.0 19.0 0.00 0.00 0.00 60 1020.5
20260503130603 67 298 7.0 19.0 0.00 0.00 0.00 60 1020.3
20260503130503 67 298 6.0 19.0 0.00 0.00 0.00 60 1020.3
20260503130403 67 297 6.0 19.0 0.00 0.00 0.00 60 1020.4
20260503130303 67 297 6.0 19.0 0.00 0.00 0.00 60 1020.4
20260503130203 68 296 6.0 19.0 0.00 0.00 0.00 60 1020.4
20260503130103 68 296 6.0 19.0 0.00 0.00 0.00 60 1020.4
20260503120204 68 300 4.0 15.0 0.00 0.00 0.00 59 1021.0
20260503120104 68 301 5.0 15.0 0.00 0.00 0.00 59 1021.0
20260503110803 68 301 3.0 15.0 0.00 0.00 0.00 56 1021.0
20260503110703 68 302 3.0 15.0 0.00 0.00 0.00 56 1020.9
20260503110603 69 302 3.0 15.0 0.00 0.00 0.00 56 1020.9
20260503110503 69 301 3.0 15.0 0.00 0.00 0.00 56 1020.9
20260503110404 69 299 3.0 15.0 0.00 0.00 0.00 56 1020.9
20260503110303 69 300 2.0 14.0 0.00 0.00 0.00 57 1021.0
20260503110203 69 297 2.0 12.0 0.00 0.00 0.00 57 1020.8
20260503100204 67 295 5.0 11.0 0.00 0.00 0.00 58 1021.1
20260503100104 67 294 5.0 11.0 0.00 0.00 0.00 58 1021.2
20260503090503 68 293 4.0 14.0 0.00 0.00 0.00 54 1021.3
20260503090403 68 292 4.0 14.0 0.00 0.00 0.00 55 1021.4
20260503090303 68 293 4.0 14.0 0.00 0.00 0.00 55 1021.4
20260503090203 68 296 4.0 14.0 0.00 0.00 0.00 55 1021.3
20260503081604 68 293 3.0 12.0 0.00 0.00 0.00 53 1021.1
20260503081504 68 294 3.0 12.0 0.00 0.00 0.00 53 1021.2
20260503081404 68 295 3.0 12.0 0.00 0.00 0.00 53 1021.3
20260503081304 68 295 3.0 12.0 0.00 0.00 0.00 53 1021.3
20260503081204 68 297 3.0 12.0 0.00 0.00 0.00 53 1021.2
20260503081104 68 297 3.0 12.0 0.00 0.00 0.00 53 1021.1
20260503081004 68 297 2.0 12.0 0.00 0.00 0.00 53 1021.2
20260503080904 68 296 3.0 12.0 0.00 0.00 0.00 53 1021.1
20260503080804 68 298 3.0 12.0 0.00 0.00 0.00 53 1021.2
20260503080704 68 299 2.0 8.0 0.00 0.00 0.00 53 1021.2
20260503080604 68 298 2.0 8.0 0.00 0.00 0.00 53 1021.2
20260503080504 68 298 2.0 8.0 0.00 0.00 0.00 53 1021.3
20260503080404 68 295 2.0 11.0 0.00 0.00 0.00 53 1021.3
20260503080304 68 296 3.0 11.0 0.00 0.00 0.00 52 1021.1
20260503080204 68 295 3.0 11.0 0.00 0.00 0.00 52 1021.2
20260503080104 68 294 3.0 11.0 0.00 0.00 0.00 52 1021.2
20260503072904 69 294 3.0 15.0 0.00 0.00 0.00 50 1021.4
20260503072803 69 294 3.0 15.0 0.00 0.00 0.00 50 1021.4
20260503072703 69 293 2.0 15.0 0.00 0.00 0.00 49 1021.3
20260503072603 69 293 2.0 15.0 0.00 0.00 0.00 49 1021.3
20260503072503 69 292 2.0 15.0 0.00 0.00 0.00 49 1021.3
20260503072403 69 293 2.0 9.0 0.00 0.00 0.00 49 1021.3
20260503072305 69 294 2.0 7.0 0.00 0.00 0.00 49 1021.4
20260503072203 69 292 2.0 9.0 0.00 0.00 0.00 49 1021.4
20260503072103 69 296 2.0 9.0 0.00 0.00 0.00 49 1021.2
20260503072003 69 296 2.0 9.0 0.00 0.00 0.00 49 1021.3
20260503071903 69 292 2.0 9.0 0.00 0.00 0.00 49 1021.3
20260503071803 69 292 2.0 9.0 0.00 0.00 0.00 49 1021.3
20260503071703 69 291 2.0 9.0 0.00 0.00 0.00 49 1021.3
20260503071603 69 292 2.0 9.0 0.00 0.00 0.00 49 1021.3
20260503071503 69 292 2.0 9.0 0.00 0.00 0.00 49 1021.2
20260503071403 69 291 3.0 9.0 0.00 0.00 0.00 49 1021.3
20260503071303 69 291 3.0 9.0 0.00 0.00 0.00 49 1021.4
20260503071203 69 291 2.0 8.0 0.00 0.00 0.00 49 1021.4
20260503071103 69 290 2.0 9.0 0.00 0.00 0.00 49 1021.3
20260503071003 69 290 2.0 9.0 0.00 0.00 0.00 49 1021.4
20260503070903 69 293 2.0 9.0 0.00 0.00 0.00 49 1021.4
20260503070803 69 294 2.0 9.0 0.00 0.00 0.00 49 1021.4
20260503070703 69 297 2.0 9.0 0.00 0.00 0.00 49 1021.4
20260503070603 69 298 2.0 9.0 0.00 0.00 0.00 49 1021.4
20260503070503 69 297 2.0 9.0 0.00 0.00 0.00 49 1021.4
20260503070403 69 297 2.0 9.0 0.00 0.00 0.00 49 1021.4
20260503070303 69 297 2.0 9.0 0.00 0.00 0.00 49 1021.4
20260503070203 69 298 2.0 9.0 0.00 0.00 0.00 49 1021.4
20260503070103 69 298 2.0 9.0 0.00 0.00 0.00 49 1021.4
20260503060304 66 292 2.0 6.0 0.00 0.00 0.00 53 1021.2
20260503060204 66 292 2.0 8.0 0.00 0.00 0.00 53 1021.3
20260503060104 66 292 2.0 8.0 0.00 0.00 0.00 53 1021.3
20260503055104 67 299 1.0 7.0 0.00 0.00 0.00 53 1021.2
20260503055004 67 299 2.0 7.0 0.00 0.00 0.00 53 1021.2
20260503054904 67 303 1.0 6.0 0.00 0.00 0.00 53 1021.1
20260503054804 67 297 1.0 6.0 0.00 0.00 0.00 53 1021.2
20260503054704 67 300 1.0 6.0 0.00 0.00 0.00 54 1021.1
20260503054604 67 300 1.0 6.0 0.00 0.00 0.00 54 1021.1
20260503054504 67 298 1.0 6.0 0.00 0.00 0.00 54 1021.1
20260503054404 67 297 1.0 6.0 0.00 0.00 0.00 54 1021.2
20260503054304 67 297 1.0 6.0 0.00 0.00 0.00 54 1021.2
20260503054204 67 296 1.0 6.0 0.00 0.00 0.00 55 1021.1
20260503054104 67 290 0.0 6.0 0.00 0.00 0.00 55 1021.2
20260503054004 66 288 0.0 6.0 0.00 0.00 0.00 55 1021.2
20260503053904 66 287 1.0 7.0 0.00 0.00 0.00 55 1021.1
20260503053804 66 287 1.0 7.0 0.00 0.00 0.00 56 1021.1
20260503053704 66 290 1.0 7.0 0.00 0.00 0.00 56 1021.1
20260503053604 66 292 1.0 7.0 0.00 0.00 0.00 56 1021.1
20260503053504 65 293 1.0 7.0 0.00 0.00 0.00 56 1021.1
20260503053404 65 294 1.0 7.0 0.00 0.00 0.00 57 1021.1
20260503053304 65 294 1.0 7.0 0.00 0.00 0.00 57 1021.1
20260503053204 65 294 1.0 7.0 0.00 0.00 0.00 57 1021.1
20260503053104 65 293 1.0 7.0 0.00 0.00 0.00 57 1021.1
20260503053004 65 293 1.0 7.0 0.00 0.00 0.00 58 1021.2
20260503052904 65 296 1.0 5.0 0.00 0.00 0.00 58 1021.2
20260503052803 64 295 1.0 5.0 0.00 0.00 0.00 58 1021.2
20260503052704 64 296 1.0 7.0 0.00 0.00 0.00 58 1021.3
20260503052603 64 295 1.0 7.0 0.00 0.00 0.00 59 1021.2
20260503052504 64 295 1.0 7.0 0.00 0.00 0.00 59 1021.1
20260503052403 63 294 1.0 7.0 0.00 0.00 0.00 59 1021.2
20260503052305 63 294 1.0 7.0 0.00 0.00 0.00 59 1021.2
20260503052204 63 294 1.0 7.0 0.00 0.00 0.00 60 1021.2
20260503052103 63 296 1.0 7.0 0.00 0.00 0.00 60 1021.3
20260503052003 62 296 1.0 7.0 0.00 0.00 0.00 60 1021.2
20260503051903 62 297 1.0 7.0 0.00 0.00 0.00 60 1021.1
20260503051803 62 298 0.0 7.0 0.00 0.00 0.00 61 1021.2
20260503051703 62 295 0.0 2.0 0.00 0.00 0.00 61 1021.2
20260503051603 62 295 0.0 2.0 0.00 0.00 0.00 61 1021.2
20260503051503 61 297 0.0 2.0 0.00 0.00 0.00 61 1021.2
20260503051403 61 302 0.0 2.0 0.00 0.00 0.00 61 1021.2
20260503051303 61 302 0.0 2.0 0.00 0.00 0.00 61 1021.1
20260503051203 61 302 0.0 2.0 0.00 0.00 0.00 61 1021.2
20260503051103 61 302 0.0 2.0 0.00 0.00 0.00 61 1021.1
20260503051003 61 0 0.0 0.0 0.00 0.00 0.00 61 1021.2
20260503050903 61 0 0.0 0.0 0.00 0.00 0.00 62 1021.1
20260503050803 61 0 0.0 0.0 0.00 0.00 0.00 62 1021.1
20260503050703 61 0 0.0 0.0 0.00 0.00 0.00 62 1021.1
20260503050603 61 0 0.0 0.0 0.00 0.00 0.00 62 1021.2
20260503050503 61 0 0.0 0.0 0.00 0.00 0.00 62 1021.2
20260503050403 60 0 0.0 0.0 0.00 0.00 0.00 62 1021.1
20260503050303 60 0 0.0 0.0 0.00 0.00 0.00 62 1021.2
20260503050203 60 0 0.0 0.0 0.00 0.00 0.00 62 1021.2
20260503050103 60 0 0.0 0.0 0.00 0.00 0.00 62 1021.1
20260503050003 60 0 0.0 0.0 0.00 0.00 0.00 62 1021.1
20260503045904 60 0 0.0 0.0 0.00 0.00 0.00 62 1021.2
20260503045803 60 0 0.0 0.0 0.00 0.00 0.00 62 1021.2
20260503045707 60 0 0.0 0.0 0.00 0.00 0.00 62 1021.1
20260503045603 60 0 0.0 0.0 0.00 0.00 0.00 62 1021.1
20260503045503 60 0 0.0 0.0 0.00 0.00 0.00 62 1021.1
20260503045403 60 0 0.0 0.0 0.00 0.00 0.00 63 1021.1
20260503045305 60 0 0.0 0.0 0.00 0.00 0.00 62 1021.1
20260503045203 60 0 0.0 0.0 0.00 0.00 0.00 63 1021.2
20260503045103 60 0 0.0 0.0 0.00 0.00 0.00 63 1021.1
20260503045003 60 0 0.0 0.0 0.00 0.00 0.00 63 1021.1
20260503044903 60 0 0.0 0.0 0.00 0.00 0.00 63 1021.1
20260503044803 60 0 0.0 0.0 0.00 0.00 0.00 62 1021.1
20260503044703 60 0 0.0 0.0 0.00 0.00 0.00 62 1021.1
20260503044603 60 0 0.0 0.0 0.00 0.00 0.00 63 1021.1
20260503044503 60 0 0.0 0.0 0.00 0.00 0.00 63 1021.1
20260503044403 60 0 0.0 0.0 0.00 0.00 0.00 63 1021.1
20260503044303 60 0 0.0 0.0 0.00 0.00 0.00 63 1021.1
20260503044203 60 0 0.0 0.0 0.00 0.00 0.00 63 1021.1
20260503044103 60 0 0.0 0.0 0.00 0.00 0.00 62 1021.1
20260503044003 60 0 0.0 0.0 0.00 0.00 0.00 62 1021.0
20260503043903 60 0 0.0 0.0 0.00 0.00 0.00 62 1021.0
20260503043803 60 0 0.0 0.0 0.00 0.00 0.00 62 1021.1
20260503043704 60 0 0.0 0.0 0.00 0.00 0.00 62 1021.1
20260503043603 60 0 0.0 0.0 0.00 0.00 0.00 62 1021.1
20260503043503 60 0 0.0 0.0 0.00 0.00 0.00 62 1021.0
20260503043403 60 0 0.0 0.0 0.00 0.00 0.00 63 1021.1
20260503043303 60 0 0.0 0.0 0.00 0.00 0.00 63 1021.1
20260503043203 60 0 0.0 0.0 0.00 0.00 0.00 62 1021.1
20260503043103 60 0 0.0 0.0 0.00 0.00 0.00 62 1021.1
20260503043003 59 0 0.0 0.0 0.00 0.00 0.00 62 1021.0
20260503042903 59 0 0.0 0.0 0.00 0.00 0.00 62 1021.1
20260503042803 60 0 0.0 0.0 0.00 0.00 0.00 62 1021.0
20260503042703 60 0 0.0 0.0 0.00 0.00 0.00 63 1021.0
20260503042603 60 0 0.0 0.0 0.00 0.00 0.00 63 1020.9
20260503042503 60 0 0.0 0.0 0.00 0.00 0.00 62 1021.0
20260503042403 60 0 0.0 0.0 0.00 0.00 0.00 62 1021.0
20260503042305 60 0 0.0 0.0 0.00 0.00 0.00 62 1021.0
20260503042203 60 0 0.0 0.0 0.00 0.00 0.00 62 1021.0
20260503042103 60 0 0.0 0.0 0.00 0.00 0.00 62 1020.9
20260503042003 60 0 0.0 0.0 0.00 0.00 0.00 62 1020.8
20260503041903 60 0 0.0 0.0 0.00 0.00 0.00 62 1020.8
20260503041803 60 0 0.0 0.0 0.00 0.00 0.00 62 1020.8
20260503041703 60 0 0.0 0.0 0.00 0.00 0.00 62 1020.7
20260503041603 60 0 0.0 0.0 0.00 0.00 0.00 62 1020.7
20260503041503 60 0 0.0 0.0 0.00 0.00 0.00 62 1020.8
20260503041403 60 0 0.0 0.0 0.00 0.00 0.00 62 1020.8
20260503041303 60 0 0.0 0.0 0.00 0.00 0.00 62 1020.8
20260503041203 60 0 0.0 0.0 0.00 0.00 0.00 62 1020.9
20260503041103 60 0 0.0 0.0 0.00 0.00 0.00 62 1020.8
20260503041003 60 0 0.0 0.0 0.00 0.00 0.00 62 1020.9
20260503040903 60 0 0.0 0.0 0.00 0.00 0.00 62 1020.8
20260503040803 60 0 0.0 0.0 0.00 0.00 0.00 62 1020.8
20260503040703 60 0 0.0 0.0 0.00 0.00 0.00 62 1020.8
20260503040603 60 0 0.0 0.0 0.00 0.00 0.00 62 1020.8
20260503040503 60 0 0.0 0.0 0.00 0.00 0.00 62 1020.8
20260503040403 60 0 0.0 0.0 0.00 0.00 0.00 62 1020.9
20260503040303 60 0 0.0 0.0 0.00 0.00 0.00 62 1021.0
20260503040203 60 0 0.0 0.0 0.00 0.00 0.00 62 1020.8
20260503040103 60 0 0.0 0.0 0.00 0.00 0.00 62 1020.7
20260503040003 60 0 0.0 0.0 0.00 0.00 0.00 62 1020.7
20260503035903 60 0 0.0 0.0 0.00 0.00 0.00 62 1020.8
20260503035803 60 0 0.0 0.0 0.00 0.00 0.00 62 1020.8
20260503035703 60 0 0.0 0.0 0.00 0.00 0.00 62 1020.8
20260503035603 60 0 0.0 0.0 0.00 0.00 0.00 62 1020.7
20260503035503 60 0 0.0 0.0 0.00 0.00 0.00 62 1020.8
20260503035403 60 0 0.0 0.0 0.00 0.00 0.00 62 1020.8
20260503035304 60 0 0.0 0.0 0.00 0.00 0.00 62 1020.8
20260503035203 60 0 0.0 0.0 0.00 0.00 0.00 62 1020.8
20260503035103 60 0 0.0 0.0 0.00 0.00 0.00 62 1020.8
20260503035003 60 0 0.0 0.0 0.00 0.00 0.00 62 1020.7
20260503034903 60 0 0.0 0.0 0.00 0.00 0.00 62 1020.8
20260503034803 60 0 0.0 0.0 0.00 0.00 0.00 62 1020.8
20260503034703 60 0 0.0 0.0 0.00 0.00 0.00 62 1020.7
20260503034604 60 0 0.0 0.0 0.00 0.00 0.00 62 1020.7
20260503034504 60 0 0.0 0.0 0.00 0.00 0.00 62 1020.8
20260503034404 60 0 0.0 0.0 0.00 0.00 0.00 62 1020.8
20260503034304 60 0 0.0 0.0 0.00 0.00 0.00 62 1020.7
20260503034204 60 0 0.0 0.0 0.00 0.00 0.00 62 1020.8
20260503034104 60 0 0.0 0.0 0.00 0.00 0.00 62 1020.7
20260503034004 60 0 0.0 0.0 0.00 0.00 0.00 62 1020.7
20260503033904 60 0 0.0 0.0 0.00 0.00 0.00 62 1020.8
20260503033804 60 0 0.0 0.0 0.00 0.00 0.00 62 1020.8
20260503033704 60 0 0.0 0.0 0.00 0.00 0.00 62 1020.8
20260503033604 60 0 0.0 0.0 0.00 0.00 0.00 62 1020.8
20260503033504 60 0 0.0 0.0 0.00 0.00 0.00 62 1020.9
20260503033404 60 0 0.0 0.0 0.00 0.00 0.00 62 1020.9